Location: Santaluz Observatory
(32.9930°N, 117.1510°W)
Time: 18:48:58
(UTC-07:00)

HST - Visible Passes

Search period start: 01 September 2014 00:00
Search period end: 11 September 2014 00:00
Orbit: 547 x 551 km, 28.5° (Epoch: 31 August)

Date Brightness Start Highest point End Pass type
(mag) Time Alt. Az. Time Alt. Az. Time Alt. Az.
03 Sep 2.9 20:14:29 10° S 20:16:00 12° SSE 20:16:00 12° SSE visible
04 Sep 2.6 20:06:32 10° SSW 20:09:04 16° SSE 20:09:52 15° SE visible
05 Sep 2.4 19:58:58 10° SSW 20:02:01 20° SSE 20:03:37 16° SE visible
05 Sep 3.7 21:39:08 10° WSW 21:39:12 10° WSW 21:39:12 10° WSW visible
06 Sep 2.2 19:51:36 10° SW 19:54:58 24° SSE 19:57:16 15° ESE visible
06 Sep 3.4 21:32:06 10° WSW 21:32:51 15° WSW 21:32:51 15° WSW visible
07 Sep 1.9 19:44:20 10° SW 19:47:56 28° SSE 19:50:50 14° ESE visible
07 Sep 3.1 21:25:05 10° WSW 21:26:24 19° WSW 21:26:24 19° WSW visible
08 Sep 1.8 19:37:09 10° SW 19:40:55 33° SSE 19:44:19 12° ESE visible
08 Sep 2.8 21:18:05 10° WSW 21:19:53 23° WSW 21:19:53 23° WSW visible
09 Sep 1.6 19:30:02 10° WSW 19:33:54 37° S 19:37:44 10° ESE visible
09 Sep 2.5 21:11:06 10° WSW 21:13:18 27° WSW 21:13:18 27° WSW visible
10 Sep 1.5 19:22:57 10° WSW 19:26:54 41° S 19:30:51 10° ESE visible
10 Sep 2.3 21:04:09 10° WSW 21:06:41 30° SW 21:06:41 30° SW visible
